Regional Weather Roundup
Issued by NWS Kansas City/Pleasant Hill, MO

Home | Current Version | Previous Version | Graphics & Text | Print | Product List | Glossary Off
Versions: 1 2 3 4 5 6 7 8 9 10 11 12 13 14 15 16 17 18 19 20 21 22 23 24 25 26 27

000
ASUS43 KEAX 262010
RWREAX

WEATHER ROUNDUP FOR EASTERN KANSAS AND NORTHWEST MISSOURI
NATIONAL WEATHER SERVICE KANSAS CITY/PLEASANT HILL MO
300 PM CDT TUE JUL 26 2016

KSZ040-057-103>105-MOZ028-029-037-043-262100-
...KANSAS CITY METROPOLITAN AREA...

CITY           SKY/WX    TMP DP  RH WIND       PRES   REMARKS
K.C. INTL      MOSUNNY   87  66  49 NE5       30.03F
K.C. DOWNTOWN  SUNNY     88  66  48 E7        30.00F HX  90
LEES SUMMIT    MOSUNNY   85  68  56 E8        30.03F
OLATHE - IXD   SUNNY     87  65  47 NE6       30.02F
OLATHE - OJC   SUNNY     87  66  49 E8        30.02F
LAWRENCE       SUNNY     87  68  52 SE7       30.01F HX  90

$$

MOZ001>008-011>017-020>025-030>033-038>040-044>046-053-054-262100-
...NORTHERN AND CENTRAL MISSOURI...

CITY           SKY/WX    TMP DP  RH WIND       PRES   REMARKS
ST. JOSEPH     SUNNY     86  67  52 CALM      30.02F
MOSBY            N/A     86  63  45 E6        30.02F HAZE
WHITEMAN AFB   PTSUNNY   85  70  59 NE7       30.00F HX  90
CLINTON        MOSUNNY   86  72  62 NE7       30.00F HX  92
SEDALIA        SUNNY     88  71  57 VRB5      30.02F HX  94
WARSAW         NOT AVBL
CHILLICOTHE      N/A     87  65  47 E3        30.03F
KIRKSVILLE     SUNNY     86  63  45 VRB3      30.04F

$$

MOZ041-047>049-056>058-063>065-088>090-097-262100-
...EASTERN AND SOUTHERN MISSOURI...

CITY           SKY/WX    TMP DP  RH WIND       PRES   REMARKS
ST. LOUIS INTL MOSUNNY   90  72  55 N7        29.99F HX  97
SPIRIT OF STL  PTSUNNY   88  75  65 NE8       29.97F HX  97
COLUMBIA       MOSUNNY   86  71  60 NE5       30.01F HX  91
JEFFERSON CITY PTSUNNY   86  70  58 VRB3      29.98F HX  90
ROLLA          PTSUNNY   88  74  63 N6        29.99F HX  96
OSAGE BEACH    MOSUNNY   85  73  67 VRB3      30.00F HX  91
SPRINGFIELD    PTSUNNY   87  73  62 NE14      29.99S HX  94
BRANSON        RAIN      77  72  83 SE17G29   30.02S
JOPLIN         MOSUNNY   87  76  69 N9        29.97F HX  97
WEST PLAINS    CLOUDY    77  72  84 S3        30.04S

$$

IAZ060-094-KSZ022-034>040-054-083-096-NEZ052-066-093-262100-
...KANSAS...SOUTHEAST NEBRASKA AND IOWA...

CITY           SKY/WX    TMP DP  RH WIND       PRES   REMARKS
TOPEKA         SUNNY     87  66  49 SE8       30.01F
MANHATTAN      SUNNY     87  69  54 VRB5      30.02F HX  91
EMPORIA        PTSUNNY   85  70  60 E7        30.02F
CHANUTE        MOSUNNY   87  72  60 NE8       29.98F HX  93
WICHITA        PTSUNNY   91  71  51 E6        30.00F HX  97
OMAHA          PTSUNNY   86  64  47 VRB6      30.04F
LINCOLN        SUNNY     88  64  44 E6        30.04F
FALLS CITY     SUNNY     86  68  54 CALM      30.02F
LAMONI         SUNNY     84  66  54 VRB5      30.05F
DES MOINES     MOSUNNY   86  64  47 SE9       30.04F

$$





USA.gov is the U.S. government's official web portal to all federal, state and local government web resources and services.